• In Switzerland
  • List of Countries
  • For 7 days
  • Water Temperature
  • Satellite Maps
  • Weather Map
  • Weather Widgets
  • user-avatar
    Login

    Hourly Weather Seredyntsi

    Today, 25 April, Wednesday

    Time Temperature Precipitation Wind Pressure Humidity
    00:00 +13°C° 0 mm 2 mps 728 mmHg 76%
    01:00 +12°C° 0 mm 2 mps 728 mmHg 77%
    02:00 +12°C° 0 mm 2 mps 728 mmHg 78%
    03:00 +12°C° 0 mm 2 mps 728 mmHg 78%
    04:00 +12°C° 0 mm 2 mps 728 mmHg 79%
    05:00 +10°C° 0 mm 2 mps 728 mmHg 79%
    06:00 +12°C° 0 mm 3 mps 728 mmHg 76%
    07:00 +13°C° 0 mm 3 mps 728 mmHg 74%
    08:00 +15°C° 0 mm 4 mps 728 mmHg 71%
    09:00 +17°C° 0 mm 4 mps 728 mmHg 66%
    10:00 +19°C° 0 mm 4 mps 728 mmHg 61%
    11:00 +20°C° 0 mm 4 mps 728 mmHg 56%
    12:00 +21°C° 0.1 mm 5 mps 728 mmHg 54%
    13:00 +22°C° 0.1 mm 5 mps 727 mmHg 53%
    14:00 +22°C° 0.1 mm 5 mps 727 mmHg 51%
    15:00 +22°C° 0 mm 5 mps 726 mmHg 52%
    16:00 +22°C° 0 mm 5 mps 726 mmHg 53%
    17:00 +22°C° 0 mm 5 mps 725 mmHg 54%
    18:00 +21°C° 0.1 mm 5 mps 725 mmHg 60%
    19:00 +19°C° 0.1 mm 5 mps 725 mmHg 66%
    20:00 +17°C° 0.1 mm 5 mps 725 mmHg 72%
    21:00 +16°C° 0.1 mm 5 mps 725 mmHg 74%
    22:00 +16°C° 0.1 mm 5 mps 725 mmHg 75%
    23:00 +15°C° 0.1 mm 5 mps 725 mmHg 77%

    Tomorrow, 26 April, Thursday

    Time Temperature Precipitation Wind Pressure Humidity
    00:00 +15°C° 0 mm 5 mps 725 mmHg 79%
    01:00 +15°C° 0 mm 4 mps 726 mmHg 81%
    02:00 +14°C° 0 mm 4 mps 726 mmHg 83%
    03:00 +14°C° 0 mm 4 mps 726 mmHg 85%
    04:00 +13°C° 0 mm 3 mps 726 mmHg 87%
    05:00 +13°C° 0 mm 3 mps 726 mmHg 90%
    06:00 +14°C° 0 mm 3 mps 726 mmHg 84%
    07:00 +14°C° 0 mm 4 mps 727 mmHg 78%
    08:00 +15°C° 0 mm 4 mps 727 mmHg 72%
    09:00 +17°C° 0 mm 4 mps 727 mmHg 67%
    10:00 +18°C° 0 mm 4 mps 728 mmHg 63%
    11:00 +19°C° 0 mm 4 mps 728 mmHg 58%
    12:00 +19°C° 0.1 mm 4 mps 728 mmHg 57%
    13:00 +19°C° 0.1 mm 4 mps 728 mmHg 57%
    14:00 +20°C° 0.1 mm 5 mps 728 mmHg 56%
    15:00 +18°C° 0.2 mm 4 mps 728 mmHg 62%
    16:00 +17°C° 0.2 mm 4 mps 727 mmHg 67%
    17:00 +14°C° 0.2 mm 3 mps 727 mmHg 73%
    18:00 +14°C° 0 mm 3 mps 727 mmHg 75%
    19:00 +14°C° 0 mm 2 mps 728 mmHg 77%
    20:00 +14°C° 0 mm 2 mps 728 mmHg 79%
    21:00 +14°C° 0 mm 2 mps 728 mmHg 80%
    22:00 +13°C° 0 mm 2 mps 729 mmHg 82%
    23:00 +13°C° 0 mm 2 mps 729 mmHg 83%

    Day after tomorrow, 27 April, Friday

    Time Temperature Precipitation Wind Pressure Humidity
    00:00 +12°C° 0 mm 2 mps 729 mmHg 84%
    01:00 +12°C° 0 mm 2 mps 729 mmHg 85%
    02:00 +11°C° 0 mm 3 mps 729 mmHg 87%
    03:00 +10°C° 0.2 mm 3 mps 729 mmHg 86%
    04:00 +10°C° 0.2 mm 3 mps 729 mmHg 86%
    05:00 +10°C° 0.2 mm 4 mps 730 mmHg 86%
    06:00 +10°C° 0.1 mm 4 mps 730 mmHg 82%
    07:00 +10°C° 0.1 mm 4 mps 730 mmHg 79%
    08:00 +11°C° 0.1 mm 4 mps 731 mmHg 76%
    09:00 +12°C° 0.1 mm 4 mps 731 mmHg 69%
    10:00 +13°C° 0.1 mm 4 mps 731 mmHg 62%
    11:00 +14°C° 0.1 mm 5 mps 731 mmHg 56%
    12:00 +14°C° 0 mm 5 mps 731 mmHg 52%
    13:00 +15°C° 0 mm 5 mps 731 mmHg 49%
    14:00 +16°C° 0 mm 5 mps 731 mmHg 45%
    15:00 +15°C° 0 mm 4 mps 731 mmHg 46%
    16:00 +15°C° 0 mm 4 mps 731 mmHg 47%
    17:00 +15°C° 0 mm 4 mps 731 mmHg 47%
    18:00 +13°C° 0 mm 3 mps 732 mmHg 52%
    19:00 +13°C° 0 mm 2 mps 732 mmHg 57%
    20:00 +11°C° 0 mm 1 mps 732 mmHg 62%
    21:00 +11°C° 0 mm 1 mps 732 mmHg 63%
    22:00 +10°C° 0 mm 1 mps 733 mmHg 64%
    23:00 +10°C° 0 mm 1 mps 733 mmHg 65%

    28 April, Saturday

    Time Temperature Precipitation Wind Pressure Humidity
    00:00 +10°C° 0 mm 1 mps 733 mmHg 66%
    01:00 +9°C° 0 mm 1 mps 733 mmHg 67%
    02:00 +8°C° 0 mm 2 mps 733 mmHg 68%
    03:00 +8°C° 0 mm 2 mps 733 mmHg 69%
    04:00 +7°C° 0 mm 2 mps 733 mmHg 71%
    05:00 +7°C° 0 mm 3 mps 733 mmHg 73%
    06:00 +8°C° 0 mm 4 mps 733 mmHg 69%
    07:00 +11°C° 0 mm 4 mps 733 mmHg 65%
    08:00 +12°C° 0 mm 5 mps 733 mmHg 61%
    09:00 +14°C° 0 mm 5 mps 733 mmHg 59%
    10:00 +16°C° 0 mm 6 mps 733 mmHg 57%
    11:00 +17°C° 0 mm 6 mps 733 mmHg 55%
    12:00 +19°C° 0 mm 6 mps 733 mmHg 54%
    13:00 +20°C° 0 mm 6 mps 732 mmHg 52%
    14:00 +21°C° 0 mm 5 mps 732 mmHg 51%
    15:00 +21°C° 0 mm 5 mps 732 mmHg 53%
    16:00 +21°C° 0 mm 5 mps 731 mmHg 54%
    17:00 +21°C° 0 mm 5 mps 731 mmHg 56%
    18:00 +20°C° 0 mm 4 mps 731 mmHg 63%
    19:00 +18°C° 0 mm 4 mps 731 mmHg 70%
    20:00 +15°C° 0 mm 4 mps 731 mmHg 77%
    21:00 +15°C° 0 mm 4 mps 731 mmHg 77%
    22:00 +15°C° 0 mm 4 mps 731 mmHg 78%
    23:00 +14°C° 0 mm 4 mps 731 mmHg 78%

    29 April, Sunday

    Time Temperature Precipitation Wind Pressure Humidity
    00:00 +14°C° 0 mm 4 mps 731 mmHg 79%
    01:00 +13°C° 0 mm 4 mps 731 mmHg 80%
    02:00 +13°C° 0 mm 4 mps 731 mmHg 81%
    03:00 +12°C° 0 mm 3 mps 731 mmHg 82%
    04:00 +12°C° 0 mm 3 mps 731 mmHg 84%
    05:00 +11°C° 0 mm 3 mps 731 mmHg 85%
    06:00 +13°C° 0 mm 4 mps 731 mmHg 81%
    07:00 +14°C° 0 mm 4 mps 731 mmHg 76%
    08:00 +17°C° 0 mm 4 mps 731 mmHg 72%
    09:00 +18°C° 0 mm 4 mps 731 mmHg 66%
    10:00 +20°C° 0 mm 5 mps 732 mmHg 60%
    11:00 +22°C° 0 mm 5 mps 732 mmHg 53%
    12:00 +22°C° 0 mm 5 mps 731 mmHg 50%
    13:00 +23°C° 0 mm 5 mps 731 mmHg 47%
    14:00 +23°C° 0 mm 5 mps 731 mmHg 43%
    15:00 +23°C° 0 mm 5 mps 730 mmHg 44%
    16:00 +22°C° 0 mm 5 mps 730 mmHg 46%
    17:00 +22°C° 0 mm 5 mps 730 mmHg 47%
    18:00 +20°C° 0 mm 5 mps 730 mmHg 52%
    19:00 +18°C° 0 mm 4 mps 730 mmHg 58%
    20:00 +17°C° 0 mm 4 mps 730 mmHg 63%
    21:00 +15°C° 0 mm 4 mps 730 mmHg 63%
    22:00 +15°C° 0 mm 4 mps 729 mmHg 64%
    23:00 +14°C° 0 mm 4 mps 729 mmHg 64%

    30 April, Monday

    Time Temperature Precipitation Wind Pressure Humidity
    00:00 +13°C° 0 mm 4 mps 729 mmHg 65%
    01:00 +13°C° 0 mm 4 mps 729 mmHg 67%
    02:00 +12°C° 0 mm 4 mps 729 mmHg 68%
    03:00 +12°C° 0 mm 4 mps 729 mmHg 70%
    04:00 +11°C° 0 mm 4 mps 729 mmHg 72%
    05:00 +11°C° 0 mm 4 mps 729 mmHg 74%
    06:00 +12°C° 0 mm 4 mps 729 mmHg 71%
    07:00 +13°C° 0 mm 5 mps 729 mmHg 69%
    08:00 +15°C° 0 mm 5 mps 729 mmHg 66%
    09:00 +17°C° 0 mm 5 mps 729 mmHg 61%
    10:00 +19°C° 0 mm 5 mps 729 mmHg 56%
    11:00 +21°C° 0 mm 6 mps 729 mmHg 51%
    12:00 +22°C° 0 mm 6 mps 729 mmHg 48%
    13:00 +22°C° 0 mm 6 mps 729 mmHg 45%
    14:00 +23°C° 0 mm 6 mps 728 mmHg 43%
    15:00 +23°C° 0 mm 6 mps 728 mmHg 44%
    16:00 +23°C° 0 mm 6 mps 728 mmHg 46%
    17:00 +22°C° 0 mm 5 mps 728 mmHg 48%
    18:00 +20°C° 0 mm 5 mps 727 mmHg 53%
    19:00 +19°C° 0 mm 5 mps 727 mmHg 58%
    20:00 +17°C° 0 mm 4 mps 727 mmHg 63%
    21:00 +17°C° 0 mm 4 mps 727 mmHg 63%
    22:00 +15°C° 0 mm 4 mps 727 mmHg 63%
    23:00 +15°C° 0 mm 5 mps 727 mmHg 63%
    Show more